Location: Unspecified
(0.0000°N, 0.0000°E)
Time: 14:26:36
(UTC+00:00)

A-11 Canister half - Pass Details

Date: 29 May 2026
Orbit: 1524 x 1684 km, 47.3° (Epoch: 7 June)

Event Time Altitude Azimuth Distance (km) Brightness Sun altitude
Rises 23:08:56 0° 300° (WNW) 4,885 11.9 -65.2°
Enters shadow 23:11:21 - 295° (WNW) 4,203 11.5 -65.5°
Reaches altitude 10° 23:12:25 10° 292° (WNW) 3,915 - -65.6°
Maximum altitude 23:21:21 36° 229° (SW) 2,435 - -66.5°
Drops below altitude 10° 23:30:23 10° 166° (SSE) 3,941 - -67.3°
Sets 23:33:57 0° 157° (SSE) 4,922 - -67.5°
